[[{"header":{"parameterUnit":"m.s-1","parameterCategory":1,"la1":30.2991,"la2":30.254,"lo1":-89.0895,"lo2":-89.0444,"dy":0.0017,"dx":0.0017,"nx":28,"ny":28,"refTime":"2024-08-20T09:00:00:Z","depth":0,"parameterNumber":2,"parameterNumberName":"U-component_of_WINDS"},"data":[0,0,0,0,0,0,0,0,0,0,0,0,0,0,0,0,0,0,0,0,0,0,0,0,0,0,0,0,0,0,0,0,0,0,0,0,0,0,0,0,0,0,0,0,0,0,0,0,0,0,0,0,0,0,0,0,0,0,-1.3502,-1.3502,0,-1.3512,-1.3512,-1.3512,-1.3445,-1.3443,-1.3442,-1.344,-1.3451,-1.3453,-1.3455,0,0,0,0,0,0,0,0,0,0,0,0,0,-1.3425,-1.3427,-1.3502,-1.3502,-1.3502,-1.3512,-1.3512,-1.3512,-1.3446,-1.3443,-1.3441,-1.3439,-1.345,-1.3453,-1.3455,0,0,0,0,0,0,0,0,0,0,0,0,0,-1.3449,-1.3427,-1.3502,-1.347,-1.3467,-1.3512,-1.3512,-1.3513,-1.3446,-1.3443,-1.344,-1.3438,-1.3449,-1.3452,-1.3455,-1.3532,0,0,-1.3465,-1.3466,0,0,0,0,0,0,0,0,-1.3448,-1.3452,-1.3475,-1.3472,-1.3469,-1.3475,-1.3489,-1.3519,-1.3447,-1.3454,-1.344,-1.3436,-1.3461,-1.3463,-1.3471,-1.3532,-1.3533,-1.3465,-1.3467,-1.3468,-1.3469,0,0,0,0,0,0,0,-1.3446,-1.3451,-1.3506,-1.3475,-1.3472,-1.3455,-1.3456,-1.3494,-1.3474,-1.3453,-1.3449,-1.3451,-1.3459,-1.3468,-1.3471,-1.3533,-1.3465,-1.3468,-1.347,-1.3471,-1.3655,-1.3658,0,0,0,0,0,0,-1.3449,-1.345,-1.3506,-1.3506,-1.3451,-1.3459,-1.3459,-1.3476,-1.3473,-1.347,-1.3453,-1.3447,-1.3465,-1.3467,-1.3471,-1.3559,-1.3468,-1.3471,-1.3473,-1.3652,-1.3656,-1.3659,0,0,0,0,0,0,-1.3447,-1.3454,-1.3505,-1.3477,-1.3482,-1.3463,-1.3482,-1.3478,-1.3487,-1.3473,-1.3469,-1.3466,-1.3462,-1.3467,-1.3517,-1.3558,-1.3473,-1.3476,-1.3648,-1.3653,-1.3657,-1.3736,0,0,0,0,0,0,-1.3445,-1.3454,-1.3483,-1.3478,-1.3484,-1.3551,-1.3485,-1.348,-1.3492,-1.3485,-1.3484,-1.3481,-1.3461,-1.3512,-1.352,-1.3561,-1.3478,-1.3644,-1.365,-1.3656,-1.3729,-1.3742,-1.3754,0,0,0,0,0,-1.3443,-1.3505,-1.3485,-1.3492,-1.352,-1.3554,-1.3557,-1.3532,-1.3496,-1.3524,-1.3515,-1.3481,-1.3553,-1.3518,-1.3526,-1.3569,-1.3642,-1.3649,-1.3655,-1.3724,-1.374,-1.3753,0,0,0,0,0,0,-1.3516,-1.3504,-1.3481,-1.3544,-1.355,-1.3542,-1.3578,-1.3549,-1.3566,-1.3559,-1.3527,-1.3527,-1.3582,-1.358,-1.3542,-1.3641,-1.3591,-1.36,-1.3641,-1.3656,-1.3667,-1.3666,-1.3481,0,0,0,0,0,-1.354,-1.3568,-1.3556,-1.3612,-1.3617,-1.3597,-1.3611,-1.359,-1.3596,-1.3598,-1.3593,-1.3599,-1.3623,-1.3639,-1.366,-1.3729,-1.3727,-1.3762,-1.3774,-1.3784,-1.3792,-1.3827,-1.3842,-1.3681,-1.3681,-1.3681,0,0,-1.3588,-1.3585,-1.3605,-1.3627,-1.3629,-1.3659,-1.36,-1.3634,-1.3656,-1.3603,-1.365,-1.3646,-1.3651,-1.371,-1.3736,-1.3711,-1.3836,-1.3793,-1.3801,-1.3803,-1.3836,-1.3851,-1.3864,-1.3686,-1.3685,-1.3684,0,0,-1.3692,-1.3693,-1.374,-1.3743,-1.3747,-1.3733,-1.3745,-1.3741,-1.3736,-1.3782,-1.3743,-1.3768,-1.381,-1.3815,-1.3823,-1.3928,-1.3897,-1.3936,-1.3999,-1.4033,-1.4046,-1.4057,-1.4093,-1.4107,-1.3944,-1.3944,-1.3944,0,-1.3752,-1.3796,-1.3767,-1.3804,-1.3814,-1.3768,-1.3814,-1.3819,-1.383,-1.3838,-1.381,-1.386,-1.3861,-1.392,-1.3945,-1.3954,-1.3965,-1.3935,-1.4046,-1.4057,-1.4067,-1.4101,-1.4115,-1.3948,-1.3948,-1.3947,-1.3947,0,-1.3869,-1.39,-1.3937,-1.3948,-1.3962,-1.4004,-1.3981,-1.4,-1.3978,-1.3967,-1.4014,-1.4013,-1.4032,-1.4045,-1.4025,-1.4101,-1.4085,-1.4052,-1.4,-1.4088,-1.4119,-1.4132,-1.3955,-1.3953,-1.3952,-1.3951,0,0,-1.4019,-1.4013,-1.4027,-1.4031,-1.4032,-1.4055,-1.4094,-1.4113,-1.4129,-1.4138,-1.4169,-1.4206,-1.4175,-1.4184,-1.4164,-1.4194,-1.4276,-1.4157,-1.4157,-1.4178,-1.4358,-1.4382,-1.4398,-1.4255,-1.4258,-1.426,-1.4358,0,-1.412,-1.4186,-1.4161,-1.4229,-1.4256,-1.4212,-1.4246,-1.425,-1.4241,-1.4263,-1.4253,-1.4278,-1.4236,-1.4241,-1.4269,-1.426,-1.4311,-1.4253,-1.4284,-1.4285,-1.4283,-1.4415,-1.4441,-1.4533,-1.437,-1.4372,-1.4373,0,-1.4246,-1.4259,-1.433,-1.4324,-1.4335,-1.4366,-1.438,-1.4402,-1.4405,-1.4397,-1.4407,-1.4379,-1.4417,-1.4366,-1.4417,-1.4378,-1.4389,-1.4386,-1.4389,-1.4391,-1.4334,-1.4419,-1.4562,-1.4575,-1.4393,-1.4391,-1.439,0,-1.4347,-1.4383,-1.4429,-1.4434,-1.4429,-1.4452,-1.4451,-1.4452,-1.4464,-1.4477,-1.4485,-1.4502,-1.4511,-1.4525,-1.4503,-1.4469,-1.4557,-1.4505,-1.455,-1.4551,-1.457,-1.4569,-1.4717,-1.458,-1.458,-1.4579,-1.4579,0,-1.4461,-1.4506,-1.4474,-1.4503,-1.4551,-1.4522,-1.4571,-1.4565,-1.4566,-1.4592,-1.4556,-1.4581,-1.4551,-1.4574,-1.4557,-1.4601,-1.4606,-1.46,-1.4594,-1.4602,-1.4603,-1.4609,-1.4601,-1.4583,-1.4582,-1.4581,-1.4581,0,-1.4582,-1.4563,-1.461,-1.4602,-1.4601,-1.4637,-1.4629,-1.4655,-1.4643,-1.4677,-1.4683,-1.4665,-1.4689,-1.4669,-1.4693,-1.4682,-1.474,-1.4726,-1.4739,-1.4735,-1.4781,-1.4776,-1.4936,-1.4955,-1.4807,-1.4809,-1.481,0,-1.4656,-1.4689,-1.4683,-1.4698,-1.4699,-1.4724,-1.4736,-1.4709,-1.4723,-1.4729,-1.4754,-1.4775,-1.4791,-1.4832,-1.4821,-1.4839,-1.4825,-1.488,-1.4827,-1.4834,-1.4824,-1.4822,-1.4825,-1.489,-1.4892,-1.4893,-1.4894,0,-1.4788,-1.4776,-1.4795,-1.481,-1.4826,-1.4837,-1.4845,-1.4859,-1.4831,-1.4848,-1.4873,-1.4885,-1.4909,-1.4931,-1.4945,-1.4944,-1.4914,-1.4911,-1.4922,-1.493,-1.4935,-1.4932,-1.4766,-1.4907,-1.4906,-1.4905,-1.4904,-1.4904,-1.4886,-1.4913,-1.4913,-1.4935,-1.4938,-1.4946,-1.4969,-1.496,-1.498,-1.4997,-1.498,-1.5009,-1.5011,-1.5027,-1.5029,-1.5052,-1.5029,-1.5046,-1.505,-1.5054,-1.506,-1.4933,-1.5055,-1.5054,-1.5054,-1.5053,-1.5053,0,-1.5015,-1.5013,-1.5033,-1.5045,-1.5062,-1.5033,-1.504,-1.5056,-1.5082,-1.5086,-1.5102,-1.513,-1.515,-1.514,-1.5158,-1.5178,-1.5165,-1.5183,-1.5181,-1.5181,-1.508,-1.5068,-1.5193,-1.5193,-1.5193,-1.5193,-1.5193,-1.5193,-1.5084,-1.5128,-1.5116,-1.516,-1.5158,-1.5186,-1.5192,-1.5199,-1.5202,-1.5234,-1.5251,-1.5244,-1.5243,-1.526,-1.5277,-1.5273,-1.5281,-1.5305,-1.5296,-1.5202,-1.5188,-1.5175,-1.5163,-1.5307,-1.5307,-1.5395,-1.5396,-1.5396]},{"header":{"parameterUnit":"m.s-1","parameterCategory":1,"la1":30.2991,"la2":30.254,"lo1":-89.0895,"lo2":-89.0444,"dy":0.0017,"dx":0.0017,"nx":28,"ny":28,"refTime":"2024-08-20T09:00:00:Z","depth":0,"parameterNumber":3,"parameterNumberName":"V-component_of_WINDS"},"data":[0,0,0,0,0,0,0,0,0,0,0,0,0,0,0,0,0,0,0,0,0,0,0,0,0,0,0,0,0,0,0,0,0,0,0,0,0,0,0,0,0,0,0,0,0,0,0,0,0,0,0,0,0,0,0,0,0,0,-2.6903,-2.6904,0,-2.6976,-2.6977,-2.6978,-2.6962,-2.696,-2.6959,-2.6958,-2.7029,-2.7032,-2.7035,0,0,0,0,0,0,0,0,0,0,0,0,0,-2.6744,-2.6747,-2.6903,-2.6904,-2.6905,-2.6976,-2.6977,-2.6978,-2.6962,-2.696,-2.6959,-2.6957,-2.7028,-2.7031,-2.7035,0,0,0,0,0,0,0,0,0,0,0,0,0,-2.6815,-2.6748,-2.6902,-2.6905,-2.6906,-2.6976,-2.6977,-2.6978,-2.6962,-2.696,-2.6958,-2.6956,-2.7026,-2.7031,-2.7036,-2.7106,0,0,-2.705,-2.7052,0,0,0,0,0,0,0,0,-2.6811,-2.682,-2.6904,-2.6905,-2.6906,-2.6958,-2.6947,-2.7021,-2.6963,-2.6941,-2.6958,-2.6955,-2.7006,-2.7013,-2.7031,-2.7109,-2.7112,-2.7051,-2.7053,-2.7055,-2.7057,0,0,0,0,0,0,0,-2.6806,-2.6817,-2.6931,-2.6905,-2.6907,-2.6901,-2.6909,-2.6961,-2.6984,-2.6943,-2.6942,-2.6951,-2.7007,-2.7026,-2.7032,-2.7113,-2.705,-2.7055,-2.7058,-2.7059,-2.7249,-2.7251,0,0,0,0,0,0,-2.68,-2.6813,-2.6929,-2.6934,-2.6853,-2.6906,-2.6914,-2.6943,-2.6984,-2.6988,-2.6952,-2.695,-2.7019,-2.7027,-2.7035,-2.7117,-2.7055,-2.706,-2.7063,-2.7247,-2.725,-2.7252,0,0,0,0,0,0,-2.6797,-2.6811,-2.6926,-2.6873,-2.6888,-2.6911,-2.6943,-2.6946,-2.6965,-2.6991,-2.6995,-2.6969,-2.7018,-2.7028,-2.7088,-2.7119,-2.7062,-2.7066,-2.7244,-2.7248,-2.7251,-2.7284,0,0,0,0,0,0,-2.6793,-2.681,-2.6838,-2.6874,-2.689,-2.698,-2.6945,-2.6949,-2.6974,-2.6971,-2.7007,-2.7011,-2.7017,-2.7081,-2.7092,-2.7125,-2.707,-2.7242,-2.7246,-2.725,-2.728,-2.7288,-2.7295,0,0,0,0,0,-2.6787,-2.6844,-2.684,-2.6854,-2.6926,-2.6982,-2.6991,-2.6998,-2.6977,-2.7004,-2.702,-2.701,-2.7115,-2.7087,-2.71,-2.7134,-2.724,-2.7245,-2.7249,-2.7277,-2.7286,-2.7294,0,0,0,0,0,0,-2.681,-2.6849,-2.6844,-2.6915,-2.6945,-2.6979,-2.7014,-2.7008,-2.7044,-2.704,-2.7046,-2.7054,-2.7114,-2.7131,-2.7099,-2.7203,-2.7174,-2.7181,-2.719,-2.7199,-2.7207,-2.7201,-2.7074,0,0,0,0,0,-2.6824,-2.6867,-2.6898,-2.6957,-2.6973,-2.6991,-2.7015,-2.7018,-2.7049,-2.7061,-2.7082,-2.7111,-2.715,-2.7176,-2.7214,-2.7283,-2.7289,-2.7312,-2.732,-2.7326,-2.7332,-2.7367,-2.7377,-2.7268,-2.7268,-2.7268,0,0,-2.6851,-2.6878,-2.6905,-2.6962,-2.6986,-2.7029,-2.7001,-2.7048,-2.7079,-2.7068,-2.7125,-2.7141,-2.7174,-2.7238,-2.7267,-2.7253,-2.7363,-2.7332,-2.7337,-2.7339,-2.7373,-2.7383,-2.7392,-2.7272,-2.7271,-2.727,0,0,-2.6924,-2.6949,-2.7,-2.7025,-2.7061,-2.7073,-2.7085,-2.7119,-2.713,-2.7188,-2.718,-2.7216,-2.7284,-2.7307,-2.7328,-2.7407,-2.7398,-2.7419,-2.7457,-2.7491,-2.75,-2.7507,-2.7533,-2.7543,-2.7426,-2.7426,-2.7426,0,-2.6953,-2.7019,-2.7027,-2.7074,-2.7099,-2.7092,-2.7142,-2.7165,-2.7211,-2.7227,-2.7212,-2.7296,-2.7317,-2.7386,-2.7405,-2.7423,-2.7435,-2.7415,-2.7498,-2.7506,-2.7513,-2.7538,-2.7548,-2.7428,-2.7428,-2.7427,-2.7427,0,-2.7052,-2.7098,-2.7134,-2.718,-2.7209,-2.7257,-2.7271,-2.7299,-2.7299,-2.7311,-2.7369,-2.7395,-2.7437,-2.7453,-2.7454,-2.7521,-2.7511,-2.7497,-2.7467,-2.7525,-2.7549,-2.7559,-2.7431,-2.743,-2.743,-2.7429,0,0,-2.7141,-2.719,-2.7203,-2.7223,-2.7262,-2.7297,-2.7344,-2.7386,-2.7408,-2.744,-2.7479,-2.7536,-2.7522,-2.7546,-2.7549,-2.7579,-2.7637,-2.7561,-2.7561,-2.7572,-2.771,-2.7719,-2.7731,-2.7632,-2.7634,-2.7636,-2.7707,0,-2.7215,-2.73,-2.7308,-2.7383,-2.7424,-2.7417,-2.7458,-2.7485,-2.7498,-2.7532,-2.7546,-2.7585,-2.7566,-2.758,-2.761,-2.7624,-2.7665,-2.7619,-2.7665,-2.7667,-2.7656,-2.7743,-2.7754,-2.7819,-2.7716,-2.7718,-2.7719,0,-2.7313,-2.7349,-2.7428,-2.746,-2.7477,-2.7514,-2.7552,-2.7586,-2.7616,-2.7623,-2.7649,-2.7647,-2.7693,-2.7663,-2.7726,-2.7695,-2.7714,-2.7724,-2.7726,-2.773,-2.7695,-2.7747,-2.7841,-2.785,-2.7734,-2.7733,-2.7732,0,-2.7367,-2.7435,-2.7491,-2.7508,-2.7547,-2.7573,-2.759,-2.7618,-2.7642,-2.7675,-2.769,-2.7727,-2.7747,-2.7775,-2.7783,-2.7761,-2.7845,-2.7816,-2.7849,-2.7849,-2.7866,-2.7865,-2.7963,-2.7882,-2.7882,-2.7882,-2.7881,0,-2.7448,-2.7497,-2.7515,-2.7549,-2.7602,-2.761,-2.7662,-2.7677,-2.7702,-2.7738,-2.7734,-2.7767,-2.7776,-2.781,-2.7816,-2.7866,-2.7875,-2.788,-2.7881,-2.788,-2.7879,-2.7891,-2.7886,-2.7884,-2.7884,-2.7883,-2.7883,0,-2.7517,-2.7532,-2.7592,-2.7624,-2.7633,-2.767,-2.7697,-2.7728,-2.774,-2.7785,-2.7796,-2.7814,-2.7854,-2.7864,-2.7912,-2.7916,-2.7973,-2.7971,-2.7964,-2.7963,-2.7995,-2.7991,-2.8103,-2.8117,-2.8029,-2.803,-2.8031,0,-2.7567,-2.7604,-2.764,-2.7664,-2.7682,-2.7721,-2.7746,-2.7754,-2.778,-2.7816,-2.7843,-2.7882,-2.7914,-2.7977,-2.7993,-2.8029,-2.8026,-2.8063,-2.8031,-2.8028,-2.8024,-2.8021,-2.8023,-2.8068,-2.8069,-2.807,-2.807,0,-2.7653,-2.7658,-2.7695,-2.7733,-2.7762,-2.7793,-2.7822,-2.7841,-2.7854,-2.7882,-2.7923,-2.7948,-2.7996,-2.8034,-2.807,-2.8085,-2.8079,-2.808,-2.809,-2.8088,-2.8081,-2.8083,-2.7978,-2.8077,-2.8077,-2.8076,-2.8076,-2.8075,-2.7713,-2.7744,-2.7774,-2.7814,-2.7837,-2.7864,-2.7895,-2.791,-2.7945,-2.7986,-2.7989,-2.8032,-2.8059,-2.8107,-2.8124,-2.8157,-2.8146,-2.816,-2.8163,-2.8166,-2.8168,-2.8077,-2.8164,-2.8164,-2.8164,-2.8164,-2.8163,0,-2.7797,-2.7816,-2.7852,-2.7893,-2.7924,-2.7917,-2.7948,-2.7974,-2.8013,-2.8039,-2.807,-2.8116,-2.8153,-2.8172,-2.8208,-2.823,-2.8228,-2.8239,-2.8237,-2.824,-2.8177,-2.8164,-2.824,-2.824,-2.824,-2.824,-2.824,-2.824,-2.7844,-2.7897,-2.7905,-2.7968,-2.7986,-2.803,-2.8048,-2.8072,-2.8093,-2.8144,-2.8175,-2.8188,-2.821,-2.8248,-2.828,-2.8285,-2.8297,-2.8309,-2.8312,-2.8253,-2.8245,-2.8237,-2.8225,-2.8313,-2.8313,-2.8372,-2.8373,-2.8373]}]]